St. Petersburg, FL

4:36 PM EST on November 23, 2017 (GMT -0500)
Whitted

Weather History for KSPG - January, 2013

Change the Weather History Date:

Monday, January 7, 2013

  Actual Average Record
Temperature  
Mean Temperature 64 °F -  
Max Temperature 66 °F 72 °F 81 °F (2007)
Min Temperature 62 °F 56 °F 37 °F (2014)
Degree Days  
Heating Degree Days 1    
Growing Degree Days 14 (Base 50)    
Moisture  
Dew Point 60 °F    
Average Humidity 87    
Maximum Humidity 96    
Minimum Humidity 78    
Precipitation  
Precipitation 0.09 in - - ()
Sea Level Pressure  
Sea Level Pressure 30.15 in    
Wind  
Wind Speed 11 mph (ENE)    
Max Wind Speed 22 mph    
Max Gust Speed -    
Visibility 8 miles    
Events Rain    
Averages and records for this station are not official NWS values.
T = Trace of Precipitation, MM = Missing Value Source: NWS Daily Summary

Daily Weather History Graph

Daily Weather History Graph

Search for Another Location

Airport or City:

Trip Planner

Search our weather history database for the weather conditions in past years. The results will help you decide how hot, cold, wet, or windy it might be!

Date:

Astronomy

Jan. 07, 2013 Rise Set
Actual Time 7:22 AM EST 5:51 PM EST
Civil Twilight 6:57 AM EST 6:16 PM EST
Nautical Twilight 6:28 AM EST 6:45 PM EST
Astronomical Twilight 5:59 AM EST 7:14 PM EST
Moon 2:51 AM EST (1/7) 1:57 PM EST (1/7)
Length of Visible Light 11h 19m
Length of Day
10h 28m
Waning Crescent, 23% of the Moon is Illuminated
Jan 7
Waning Crescent
Jan 11
New
Jan 18
First Quarter
Jan 26
Full
Feb 3
Last Quarter

Hourly Weather History & Observations

Time (EST) Temp. Dew Point Humidity Pressure Visibility Wind Dir Wind Speed Gust Speed Precip Events Conditions
12:42 AM 66.9 °F 64.0 °F 90% 30.13 in 10.0 mi NNE 6.9 mph - N/A   Overcast
12:53 AM 66.9 °F 64.0 °F 90% 30.12 in 9.0 mi NNE 8.1 mph - N/A   Overcast
1:53 AM 66.9 °F 64.0 °F 90% 30.11 in 9.0 mi ENE 9.2 mph - N/A   Clear
2:01 AM 66.9 °F 64.9 °F 93% 30.11 in 9.0 mi ENE 8.1 mph - N/A   Scattered Clouds
2:10 AM 66.0 °F 64.9 °F 96% 30.11 in 8.0 mi East 4.6 mph - N/A   Mostly Cloudy
2:53 AM 66.9 °F 64.9 °F 93% 30.11 in 8.0 mi ENE 8.1 mph - N/A   Overcast
3:53 AM 66.9 °F 64.0 °F 90% 30.11 in 7.0 mi NE 9.2 mph - N/A   Overcast
4:41 AM 66.0 °F 64.0 °F 93% 30.12 in 8.0 mi NE 9.2 mph - N/A   Overcast
4:53 AM 66.0 °F 64.0 °F 93% 30.12 in 7.0 mi NE 9.2 mph - N/A   Overcast
5:00 AM 66.0 °F 64.0 °F 93% 30.12 in 7.0 mi NE 9.2 mph - N/A   Overcast
5:11 AM 66.0 °F 63.0 °F 90% 30.11 in 6.0 mi ENE 9.2 mph - N/A   Overcast
5:53 AM 64.0 °F 62.1 °F 93% 30.14 in 7.0 mi NE 15.0 mph - N/A   Overcast
6:10 AM 64.0 °F 61.0 °F 90% 30.14 in 9.0 mi NE 13.8 mph - N/A   Overcast
6:53 AM 63.0 °F 60.1 °F 90% 30.15 in 10.0 mi NE 17.3 mph - N/A   Overcast
7:34 AM 64.0 °F 60.1 °F 87% 30.17 in 10.0 mi ENE 17.3 mph - N/A   Overcast
7:53 AM 64.0 °F 60.1 °F 87% 30.17 in 8.0 mi ENE 17.3 mph - N/A   Overcast
8:34 AM 63.0 °F 59.0 °F 87% 30.18 in 8.0 mi NE 15.0 mph - N/A   Overcast
8:53 AM 62.1 °F 59.0 °F 90% 30.20 in 6.0 mi NE 17.3 mph - N/A   Overcast
9:31 AM 63.0 °F 55.9 °F 78% 30.21 in 10.0 mi ENE 21.9 mph - N/A   Overcast
9:53 AM 63.0 °F 55.9 °F 78% 30.21 in 10.0 mi ENE 17.3 mph - N/A   Overcast
10:27 AM 63.0 °F 55.9 °F 78% 30.21 in 10.0 mi East 20.7 mph - N/A   Overcast
10:53 AM 62.1 °F 55.9 °F 80% 30.21 in 10.0 mi ENE 13.8 mph - N/A   Overcast
11:53 AM 63.0 °F 55.9 °F 78% 30.19 in 10.0 mi ENE 13.8 mph - N/A   Mostly Cloudy
12:53 PM 63.0 °F 55.9 °F 78% 30.16 in 10.0 mi East 13.8 mph - N/A   Overcast
1:40 PM 64.0 °F 57.0 °F 78% 30.14 in 10.0 mi East 16.1 mph - N/A   Overcast
2:40 PM 64.0 °F 57.0 °F 78% 30.13 in 10.0 mi ENE 11.5 mph - N/A   Overcast
2:53 PM 64.0 °F 57.9 °F 80% 30.14 in 5.0 mi East 11.5 mph - 0.00 in Rain Light Rain
2:57 PM 63.0 °F 57.9 °F 84% 30.13 in 2.5 mi East 12.7 mph - 0.02 in Rain Rain
3:10 PM 63.0 °F 59.0 °F 87% 30.14 in 1.8 mi East 10.4 mph - 0.07 in Rain Rain
3:17 PM 63.0 °F 59.0 °F 87% 30.14 in 3.0 mi East 9.2 mph - 0.08 in Rain Light Rain
3:53 PM 63.0 °F 60.1 °F 90% 30.14 in 4.0 mi ENE 11.5 mph - 0.09 in Rain Light Rain
4:53 PM 64.0 °F 60.1 °F 87% 30.15 in 10.0 mi NE 10.4 mph - 0.00 in   Overcast
6:53 PM 64.9 °F 60.1 °F 84% 30.17 in 10.0 mi ENE 16.1 mph - N/A   Overcast
7:32 PM 64.9 °F 60.1 °F 84% 30.18 in 10.0 mi ENE 13.8 mph - N/A   Overcast
7:53 PM 64.9 °F 61.0 °F 87% 30.18 in 10.0 mi ENE 16.1 mph - N/A   Overcast
8:06 PM 64.9 °F 61.0 °F 87% 30.18 in 10.0 mi ENE 17.3 mph - N/A   Overcast
8:53 PM 64.9 °F 61.0 °F 87% 30.18 in 10.0 mi ENE 13.8 mph - N/A   Overcast
9:53 PM 64.9 °F 61.0 °F 87% 30.17 in 10.0 mi ENE 11.5 mph - N/A   Partly Cloudy
10:53 PM 64.9 °F 61.0 °F 87% 30.17 in 10.0 mi NE 11.5 mph - N/A   Mostly Cloudy
11:53 PM 64.0 °F 61.0 °F 90% 30.16 in 10.0 mi ENE 11.5 mph - N/A   Partly Cloudy